Weather observations for the past three days for
Anderson, Anderson County Airport
Imperial (Metric)
Date Time (edt) Wind (mph) Vis. (mi.) Weather Sky Cond. Temperature (ºF) Relative Humidity Wind Chill (°F) Heat Index (°F) Pressure Precipitation (in)
Air Dwpt 6 hour altimeter (in) sea level (mb) 1 hr 3 hr 6 hr
Max. Min.
20 20:56 S 7 10.00 A Few Clouds FEW034 79 71.1 77% 82 30.08 1017.5
20 19:56 S 7 10.00 Fair CLR 82 73 86 81 74% 87 30.08 1017.6
20 18:56 SW 8 10.00 A Few Clouds FEW110 82.9 71.1 67% 88 30.07 1017.2
20 17:56 SW 10 10.00 A Few Clouds FEW070 82.9 71.1 67% 88 30.06 1016.8
20 16:56 S 9 10.00 Partly Cloudy FEW029 SCT100 84 71.1 65% 89 30.07 1017.2
20 15:56 SW 8 10.00 Partly Cloudy SCT031 84 70 63% 88 30.09 1018.0
20 14:56 S 8 10.00 Mostly Cloudy BKN026 82.9 70 65% 87 30.09 1018.0
20 13:56 SW 12 10.00 Mostly Cloudy BKN023 82 70 82.9 72 67% 86 30.11 1018.7
20 12:56 SW 10 10.00 Mostly Cloudy BKN020 BKN028 80.1 69.1 69% 83 30.14 1019.8
20 11:56 SW 8 10.00 Mostly Cloudy BKN013 BKN028 78.1 70 76% 80 30.15 1020.1
20 10:56 SW 8 10.00 Light Rain BKN009 OVC015 75.9 70 82% 77 30.15 1020.2
20 09:56 SW 7 10.00 Light Rain BKN120 73.9 70 88% 30.15 1020.1
20 08:56 W 6 10.00 Light Rain FEW017 SCT037 OVC120 73 70 90% 30.15 1020.0
20 07:56 SW 3 10.00 Overcast OVC015 72 69.1 72 71.1 91% 30.12 1019.2 0.01
20 06:56 S 3 10.00 Mostly Cloudy SCT007 BKN018 71.1 69.1 94% 30.11 1018.9
20 05:56 W 5 10.00 Partly Cloudy FEW010 SCT023 71.1 69.1 94% 30.1 1018.6
20 04:56 SW 5 10.00 A Few Clouds FEW011 71.1 68 90% 30.09 1018.1 0.01
20 03:56 W 5 10.00 A Few Clouds FEW008 71.1 70 96% 30.08 1017.6 0.01
20 02:56 SW 3 10.00 A Few Clouds FEW003 71.1 69.1 94% 30.08 1017.7
20 01:56 S 6 10.00 Light Rain FEW004 BKN010 OVC028 72 70 73 71.1 94% 30.11 1018.6 0.01 0.04
20 00:56 W 3 10.00 Mostly Cloudy BKN070 72 69.1 91% 30.11 1018.5
19 23:56 Calm 10.00 Overcast FEW003 OVC080 72 69.1 91% 30.11 1018.7
19 22:56 S 3 10.00 Light Rain FEW003 OVC095 72 70 94% 30.12 1018.8 0.03
19 21:56 SE 5 10.00 Mostly Cloudy BKN110 72 69.1 91% 30.11 1018.7 0.01
19 20:56 S 7 10.00 Light Rain BKN023 72 70 94% 30.11 1018.5 0.02
19 19:56 SE 3 10.00 Partly Cloudy FEW005 SCT110 73 70 87.1 71.1 90% 30.1 1018.2 1.7
19 18:56 NE 3 10.00 Light Rain FEW060 SCT090 BKN110 73 70 90% 30.06 1016.9 0.04
19 17:56 N 5 9.00 Light Rain FEW070 BKN090 OVC110 72 69.1 91% 30.06 1017.0 1.45
19 16:56 Calm 5.00 Thunderstorm Light Rain Fog/Mist FEW007 BKN029 OVC070 73 69.1 87% 30.08 1017.6 0.21 0.21
19 15:56 SE 7 10.00 Thunderstorm in Vicinity BKN037 BKN044 86 71.1 61% 92 30.03 1015.8
19 14:56 S 6 10.00 Partly Cloudy SCT029 84.9 72 65% 91 30.05 1016.6
19 13:56 SE 8 10.00 Mostly Cloudy SCT029 BKN043 84.9 72 86 73.9 65% 91 30.08 1017.6
19 12:56 Calm 10.00 Fair CLR 84 70 63% 88 30.1 1018.2
19 11:56 S 6 10.00 Overcast SCT022 BKN029 OVC039 82 71.1 69% 86 30.11 1018.4
19 10:56 Calm 10.00 A Few Clouds FEW019 82 71.1 69% 86 30.1 1018.3
19 09:56 E 5 10.00 Mostly Cloudy BKN012 80.1 71.1 74% 84 30.1 1018.2
19 08:56 E 6 10.00 Mostly Cloudy BKN009 78.1 72 82% 80 30.09 1017.9
19 07:56 Calm 8.00 Partly Cloudy SCT004 73.9 71.1 73.9 72 91% 30.08 1017.6
19 06:56 Calm 5.00 Fog/Mist BKN003 73 71.1 94% 30.05 1016.6
19 05:56 Calm 9.00 Fair CLR 73 70 90% 30.03 1015.9
19 04:56 Calm 9.00 Fair CLR 73 70 90% 30.02 1015.7
19 03:56 Calm 8.00 A Few Clouds FEW004 72 70 94% 30.02 1015.6
19 02:56 SW 3 9.00 Overcast OVC003 72 70 94% 30.04 1016.2
19 01:56 Calm 10.00 Overcast BKN009 OVC095 72 70 75 72 94% 30.05 1016.4
19 00:56 SW 5 10.00 Mostly Cloudy BKN009 73 70 90% 30.06 1016.6
18 23:56 S 5 10.00 Overcast OVC011 73 70 90% 30.05 1016.5
18 22:56 S 3 10.00 Partly Cloudy SCT011 73 70 90% 30.05 1016.5
18 21:56 S 5 10.00 Fair CLR 73.9 70 88% 30.03 1015.8
18 20:56 Calm 10.00 Fair CLR 73.9 71.1 91% 30.01 1015.2
18 19:56 SW 7 10.00 Fair CLR 75 71.1 93 73.9 88% 75 29.98 1014.4 0.06
18 18:56 S 10 10.00 Light Rain SCT120 75 71.1 88% 75 30 1014.9 0.03
18 17:56 SW 7 10.00 Partly Cloudy FEW060 SCT080 80.1 68 67% 83 29.98 1014.2
18 16:56 W 17 G 29 10.00 Thunderstorm in Vicinity CLR 84.9 66.9 55% 88 29.97 1013.8 0.03
18 15:56 NW 10 G 18 10.00 Thunderstorm in Vicinity CLR 90 66 45% 93 29.95 1012.9
18 14:56 NW 17 G 36 6.00 Thunderstorm Rain OVC055 80.1 70 71% 83 29.99 1014.6 0.03
18 13:56 SW 9 10.00 Partly Cloudy SCT050 91 69.1 93 75.9 49% 96 29.98 1014.1
18 12:56 W 10 10.00 A Few Clouds FEW043 FEW050 90 70 52% 95 30.01 1015.2
18 11:56 W 10 10.00 A Few Clouds FEW110 88 68 52% 92 30.02 1015.5
18 10:56 W 8 10.00 Fair CLR 84.9 70 61% 89 30.03 1015.7
18 09:56 W 7 10.00 Fair CLR 82 71.1 69% 86 30.03 1015.8
18 08:56 SW 7 10.00 Fair CLR 78.1 70 76% 80 30.02 1015.5
18 07:56 W 6 10.00 Fair CLR 75.9 70 75.9 73.9 82% 77 30.01 1015.0
18 06:56 W 7 10.00 Fair CLR 75 70 84% 75 29.99 1014.5
18 05:56 SW 6 10.00 Fair CLR 75 70 84% 75 29.98 1014.0
18 04:56 SW 8 10.00 Partly Cloudy SCT075 75 70 84% 75 29.98 1014.1
18 03:56 SW 8 10.00 Fair CLR 75 70 84% 75 29.97 1013.9
18 02:56 W 9 10.00 Fair CLR 75.9 71.1 85% 76 29.98 1014.0
18 01:56 SW 7 10.00 Fair CLR 75 71.1 84.9 75 88% 75 29.98 1014.0
18 00:56 SW 7 10.00 Fair CLR 75.9 71.1 85% 76 29.99 1014.3
17 23:56 SW 7 10.00 Fair CLR 77 71.1 82% 79 30 1014.5
17 22:56 SW 9 10.00 Fair CLR 77 70 79% 79 30 1014.8
17 21:56 SW 13 10.00 Fair CLR 79 69.1 72% 82 29.99 1014.4
Date Time (edt) Wind (mph) Vis. (mi.) Weather Sky Cond. Air Dwpt Max. Min. Relative Humidity Wind Chill (°F) Heat Index (°F) altimeter (in) sea level (mb) 1 hr 3 hr 6 hr
6 hour
Temperature (ºF) Pressure Precipitation (in)